COSMOS 2251 DEB, 37126

Orbit data source: Space-Track

COSMOS 2251 DEB, 37126 is space debris in LEO originally from a launch on Wed, 16 Jun 1993 UTC launched from the Plesetsk Missile And Space Complex (PKMTR). The debris from Iridium 33, an American commercial communications satellite, has been tracked extensively since its accidental collision with the defunct Russian satellite Cosmos 2251 in 2009. This event, occurring at high speed in low Earth orbit (LEO), generated thousands of pieces of space debris, significantly increasing the risk of further collisions. The Iridium 33 debris cloud has impacted space traffic management and orbital debris mitigation strategies, making it a subject of ongoing study in space situational awareness.

Loading next visibility...
Identifier
37126, 1993-036BGY
Orbit
LEO
Country
Flag of CISCIS
Related business
Manufacturer
Unknown
Mission
Spacecraft
Bus & Motor
Unknown
Mass
Unknown
Launch date (UTC)
1993-06-16 (33 years ago)
Launch vehicle
Unknown
Launch site
Plesetsk Missile And Space Complex (PKMTR)
Object type
Payload
Rocket body
Debris
Shape & HBR
Unknown shape, 0.1 m
Radar Cross Section
Small (<0.1 m²)

Expand to show TLE details & history
Last TLE update: 4 days ago

TLE from 4 days ago
0 COSMOS 2251 DEB
1 37126U 93036BGY 25349.28049093  .00001461  00000-0  20663-3 0  9990
2 37126  73.9533 349.5533 0123094 227.1861 131.8915 14.73082746 81367
Epoch: 2025-12-15T06:43Z
TLE epoch observation values (Epoch: 2025-12-15T06:43:54.416Z)
Latitude
0.00002°
Longitude
164.39526°
Altitude
712.264 km
Speed
7.469 km/s
True Right ascension
23h 18m 12s
True Declination
0° 00' 00"
Sunlit
Object was in daylight at epoch
Visualization orbit readout
Latitude
Unknown
Longitude
Unknown
Altitude
Unknown
Speed
Unknown
Apparent Right ascension
Unknown
Apparent Declination
Unknown
Sunlit
N/A
Visualization observer readout
Local Sidereal Time
02:18:18
Azimuth
Unknown
Elevation
Unknown
Doppler factor
Unknown
Orbital elements
Apogee altitude
735.332 km
Perigee altitude
562.336 km
Semi-major axis
7,026.971 km
Eccentricity
0.01231
Inclination
73.9533°
RAAN
349.5533°
Arg. of periapsis
227.1861°
True anomaly
132.93079°
Mean anomaly
131.8915°
Eccentric anomaly
132.41221°
Mean motion
3.68461 °/min
Orbital period
97.7 mins
BSTAR
0.00020663

Documentation

Showing up to 5 results
|